Weather History for Fort Meade, MD

Change the Weather History Date:

Wednesday, April 23, 2014

  Actual Average (KBWI) Record (KBWI)
Temperature  
Mean Temperature 50 °F 56 °F  
Max Temperature 60 °F 67 °F 94 °F (1960)
Min Temperature 41 °F 45 °F 31 °F (1982)
Degree Days  
Heating Degree Days 14 10  
Month to date heating degree days 295  
Since 1 July heating degree days 4556  
Cooling Degree Days 0 1  
Month to date cooling degree days 5  
Year to date cooling degree days 6  
Moisture  
Dew Point 34 °F    
Average Humidity 52    
Maximum Humidity 82    
Minimum Humidity 39    
Precipitation  
Precipitation 0.00 in 0.11 in 1.11 in (1907)
Month to date precipitation 2.46  
Year to date precipitation 12.31  
Snow  
Snow 0.00 in 0.00 in T in (1986)
Month to date snowfall 0.0  
Since 1 July snowfall 20.1  
Snow Depth -    
Sea Level Pressure  
Sea Level Pressure 29.83 in    
Wind  
Wind Speed 12 mph (WNW)    
Max Wind Speed 23 mph    
Max Gust Speed 30 mph    
Visibility 10 miles    
Events      
T = Trace of Precipitation, MM = Missing Value Source: NWS Daily Summary

Daily Weather History Graph

Daily Weather History Graph

Search for Another Location

Airport:

Trip Planner

Search our weather history database for the weather conditions in past years. The results will help you decide how hot, cold, wet, or windy it might be!

Date:

Astronomy

Apr. 23, 2014 Rise Set
Actual Time 6:19 AM EDT 7:52 PM EDT
Civil Twilight 5:50 AM EDT 8:20 PM EDT
Nautical Twilight 5:17 AM EDT 8:54 PM EDT
Astronomical Twilight 4:41 AM EDT 9:30 PM EDT
Moon 2:46 AM EDT (4/23) 2:00 PM EDT (4/23)
Length of Visible Light 14h 29m
Length of Day
13h 33m
Waning Crescent, 35% of the Moon is Illuminated
Apr 23
Waning Crescent
Apr 29
New
May 6
First Quarter
May 14
Full
May 21
Last Quarter

Hourly Weather History & Observations

Time (EDT) Temp. Windchill Dew Point Humidity Pressure Visibility Wind Dir Wind Speed Gust Speed Precip Events Conditions
12:12 AM 55.4 °F - 50.0 °F 82% 29.68 in 10.0 mi NW 12.7 mph 17.3 mph N/A   Mostly Cloudy
12:30 AM 55.4 °F - 46.4 °F 72% 29.69 in 10.0 mi NW 9.2 mph 21.9 mph N/A   Mostly Cloudy
12:51 AM 55.4 °F - 42.8 °F 63% 29.69 in 10.0 mi NW 15.0 mph 23.0 mph N/A   Scattered Clouds
1:12 AM 55.4 °F - 41.0 °F 58% 29.70 in 10.0 mi NNW 8.1 mph 19.6 mph N/A   Clear
1:30 AM 53.6 °F - 37.4 °F 54% 29.70 in 10.0 mi NW 6.9 mph 23.0 mph N/A   Clear
1:51 AM 53.6 °F - 37.4 °F 54% 29.70 in 10.0 mi NW 9.2 mph 17.3 mph N/A   Clear
2:12 AM 51.8 °F - 35.6 °F 54% 29.70 in 10.0 mi NW 9.2 mph 16.1 mph N/A   Clear
2:30 AM 51.8 °F - 35.6 °F 54% 29.70 in 10.0 mi WNW 13.8 mph 18.4 mph N/A   Clear
2:51 AM 50.0 °F - 35.6 °F 58% 29.70 in 10.0 mi WNW 10.4 mph - N/A   Clear
3:12 AM 50.0 °F - 35.6 °F 58% 29.70 in 10.0 mi WNW 6.9 mph - N/A   Clear
3:30 AM 50.0 °F - 33.8 °F 54% 29.71 in 10.0 mi WNW 6.9 mph - N/A   Clear
3:51 AM 50.0 °F - 33.8 °F 54% 29.71 in 10.0 mi NW 12.7 mph 19.6 mph N/A   Clear
4:12 AM 50.0 °F - 33.8 °F 54% 29.72 in 10.0 mi WNW 13.8 mph 20.7 mph N/A   Clear
4:30 AM 48.2 °F - 33.8 °F 58% 29.73 in 10.0 mi WNW 11.5 mph 16.1 mph N/A   Clear
4:51 AM 46.4 °F 41.9 °F 33.8 °F 62% 29.74 in 10.0 mi West 9.2 mph - N/A   Clear
5:12 AM 46.4 °F 42.4 °F 33.8 °F 62% 29.74 in 10.0 mi West 8.1 mph - N/A   Clear
5:30 AM 46.4 °F 41.1 °F 33.8 °F 62% 29.74 in 10.0 mi West 11.5 mph 18.4 mph N/A   Clear
5:51 AM 46.4 °F 41.9 °F 33.8 °F 62% 29.75 in 10.0 mi West 9.2 mph - N/A   Clear
6:12 AM 46.4 °F 40.7 °F 33.8 °F 62% 29.76 in 10.0 mi West 12.7 mph 18.4 mph N/A   Clear
6:33 AM 46.4 °F 41.1 °F 32.0 °F 57% 29.77 in 10.0 mi West 11.5 mph 20.7 mph N/A   Clear
6:51 AM 46.4 °F 41.1 °F 32.0 °F 57% 29.77 in 10.0 mi West 11.5 mph 20.7 mph N/A   Scattered Clouds
7:12 AM 46.4 °F 41.5 °F 32.0 °F 57% 29.78 in 10.0 mi NW 10.4 mph 18.4 mph N/A   Mostly Cloudy
7:33 AM 50.0 °F - 32.0 °F 50% 29.79 in 10.0 mi WNW 11.5 mph 17.3 mph N/A   Mostly Cloudy
7:51 AM 50.0 °F - 32.0 °F 50% 29.79 in 10.0 mi WNW 9.2 mph 19.6 mph N/A   Scattered Clouds
8:12 AM 50.0 °F - 32.0 °F 50% 29.80 in 10.0 mi WNW 12.7 mph 18.4 mph N/A   Mostly Cloudy
9:12 AM 50.0 °F - 32.0 °F 50% 29.82 in 10.0 mi West 12.7 mph 23.0 mph N/A   Overcast
9:33 AM 51.8 °F - 33.8 °F 50% 29.82 in 10.0 mi NW 12.7 mph 23.0 mph N/A   Overcast
10:33 AM 53.6 °F - 32.0 °F 44% 29.83 in 10.0 mi WNW 16.1 mph 25.3 mph N/A   Mostly Cloudy
10:51 AM 55.4 °F - 32.0 °F 41% 29.83 in 10.0 mi WNW 18.4 mph 28.8 mph N/A   Mostly Cloudy
11:12 AM 51.8 °F - 32.0 °F 47% 29.83 in 10.0 mi WNW 12.7 mph 26.5 mph N/A   Mostly Cloudy
11:33 AM 53.6 °F - 32.0 °F 44% 29.83 in 10.0 mi WNW 11.5 mph 24.2 mph N/A   Mostly Cloudy
11:51 AM 55.4 °F - 33.8 °F 44% 29.83 in 10.0 mi WNW 12.7 mph 25.3 mph N/A   Overcast
12:12 PM 55.4 °F - 33.8 °F 44% 29.83 in 10.0 mi WNW 20.7 mph 25.3 mph N/A   Mostly Cloudy
12:33 PM 57.2 °F - 33.8 °F 41% 29.82 in 10.0 mi WNW 19.6 mph 27.6 mph N/A   Scattered Clouds
1:33 PM 59.0 °F - 33.8 °F 39% 29.82 in 10.0 mi NW 15.0 mph 27.6 mph N/A   Scattered Clouds
1:51 PM 59.0 °F - 33.8 °F 39% 29.82 in 10.0 mi NW 13.8 mph 26.5 mph N/A   Scattered Clouds
2:12 PM 59.0 °F - 33.8 °F 39% 29.83 in 10.0 mi NW 16.1 mph 27.6 mph N/A   Scattered Clouds
2:33 PM 60.8 °F - 35.6 °F 39% 29.83 in 10.0 mi NW 17.3 mph 24.2 mph N/A   Scattered Clouds
2:54 PM 59.0 °F - 33.8 °F 39% 29.84 in 10.0 mi NW 13.8 mph 27.6 mph N/A   Scattered Clouds
3:12 PM 59.0 °F - 35.6 °F 42% 29.84 in 10.0 mi NW 17.3 mph 25.3 mph N/A   Clear
3:33 PM 59.0 °F - 33.8 °F 39% 29.84 in 10.0 mi WNW 23.0 mph 28.8 mph N/A   Clear
3:54 PM 59.0 °F - 35.6 °F 42% 29.84 in 10.0 mi NW 16.1 mph 24.2 mph N/A   Scattered Clouds
4:12 PM 59.0 °F - 33.8 °F 39% 29.84 in 10.0 mi WNW 17.3 mph 24.2 mph N/A   Clear
4:33 PM 59.0 °F - 33.8 °F 39% 29.85 in 10.0 mi WNW 17.3 mph 26.5 mph N/A   Scattered Clouds
4:54 PM 57.2 °F - 33.8 °F 41% 29.85 in 10.0 mi WNW 13.8 mph 29.9 mph N/A   Scattered Clouds
5:12 PM 55.4 °F - 33.8 °F 44% 29.86 in 10.0 mi WNW 13.8 mph 25.3 mph N/A   Clear
5:33 PM 55.4 °F - 33.8 °F 44% 29.87 in 10.0 mi NW 15.0 mph 24.2 mph N/A   Scattered Clouds
5:54 PM 55.4 °F - 33.8 °F 44% 29.88 in 10.0 mi WNW 18.4 mph 27.6 mph N/A   Scattered Clouds
6:12 PM 53.6 °F - 33.8 °F 47% 29.88 in 10.0 mi NNW 13.8 mph 21.9 mph N/A   Clear
6:33 PM 53.6 °F - 33.8 °F 47% 29.88 in 10.0 mi NW 18.4 mph 25.3 mph N/A   Clear
6:54 PM 53.6 °F - 32.0 °F 44% 29.89 in 10.0 mi NW 8.1 mph 23.0 mph N/A   Scattered Clouds
7:12 PM 51.8 °F - 32.0 °F 47% 29.89 in 10.0 mi NW 10.4 mph 19.6 mph N/A   Clear
7:33 PM 51.8 °F - 32.0 °F 47% 29.90 in 10.0 mi WNW 10.4 mph 17.3 mph N/A   Clear
7:54 PM 51.8 °F - 32.0 °F 47% 29.91 in 10.0 mi NW 10.4 mph 19.6 mph N/A   Clear
8:12 PM 50.0 °F - 32.0 °F 50% 29.92 in 10.0 mi NW 15.0 mph 19.6 mph N/A   Clear
8:33 PM 50.0 °F - 32.0 °F 50% 29.93 in 10.0 mi NW 15.0 mph 21.9 mph N/A   Clear
8:54 PM 50.0 °F - 32.0 °F 50% 29.95 in 10.0 mi WNW 13.8 mph 23.0 mph N/A   Clear
9:12 PM 48.2 °F - 32.0 °F 54% 29.97 in 10.0 mi NW 10.4 mph 19.6 mph N/A   Clear
9:33 PM 46.4 °F 41.5 °F 32.0 °F 57% 29.99 in 10.0 mi NW 10.4 mph 18.4 mph N/A   Clear
9:54 PM 46.4 °F 41.9 °F 32.0 °F 57% 30.00 in 10.0 mi NW 9.2 mph 17.3 mph N/A   Clear
10:12 PM 46.4 °F 45.2 °F 32.0 °F 57% 30.01 in 10.0 mi NW 3.5 mph - N/A   Clear
10:33 PM 44.6 °F - 32.0 °F 61% 30.01 in 10.0 mi Calm Calm - N/A   Clear
10:54 PM 42.8 °F - 32.0 °F 66% 30.00 in 10.0 mi Calm Calm - N/A   Clear
11:12 PM 42.8 °F 41.1 °F 32.0 °F 66% 30.00 in 10.0 mi WNW 3.5 mph - N/A   Clear
11:33 PM 41.0 °F 39.0 °F 32.0 °F 70% 30.01 in 10.0 mi West 3.5 mph - N/A   Clear
11:54 PM 41.0 °F 38.0 °F 32.0 °F 70% 30.01 in 10.0 mi WNW 4.6 mph - N/A   Clear